Change the Weather History Date:

Thursday, December 19, 2013

  Actual Average Record
Temperature  
Mean Temperature 43 °F 33 °F  
Max Temperature 54 °F 41 °F 60 °F (2008)
Min Temperature 32 °F 26 °F 1 °F (1996)
Degree Days  
Heating Degree Days 22 32  
Month to date heating degree days 661 547  
Since 1 July heating degree days 1685 1405  
Cooling Degree Days 0 0  
Month to date cooling degree days 0 0  
Year to date cooling degree days 1287 1387  
Moisture  
Dew Point 38 °F    
Average Humidity 75    
Maximum Humidity 85    
Minimum Humidity 64    
Precipitation  
Precipitation 0.00 in 0.09 in 0.44 in (1990)
Month to date precipitation 0.78 1.99  
Year to date precipitation 51.36 42.48  
Sea Level Pressure  
Sea Level Pressure 29.99 in    
Wind  
Wind Speed 12 mph (South)    
Max Wind Speed 22 mph    
Max Gust Speed 28 mph    
Visibility 10 miles    
Events      
T = Trace of Precipitation, MM = Missing Value Source: NWS Daily Summary

Daily Weather History Graph

Daily Weather History Graph

Search for Another Location

Airport or City:

Trip Planner

Search our weather history database for the weather conditions in past years. The results will help you decide how hot, cold, wet, or windy it might be!

Date:

Astronomy

Dec. 19, 2013 Rise Set
Actual Time 7:04 AM CST 4:31 PM CST
Civil Twilight 6:34 AM CST 5:01 PM CST
Nautical Twilight 6:00 AM CST 5:34 PM CST
Astronomical Twilight 5:28 AM CST 6:07 PM CST
Moon 6:55 PM CST (12/19) 8:23 AM CST (12/19)
Length of Visible Light 10h 27m
Length of Day
9h 27m
Waning Gibbous, 95% of the Moon is Illuminated
Dec 19
Waning Gibbous
Dec 25
Last Quarter
Jan 1
New
Jan 7
First Quarter
Jan 15
Full

Hourly Weather History & Observations

Time (CST) Temp. Windchill Dew Point Humidity Pressure Visibility Wind Dir Wind Speed Gust Speed Precip Events Conditions
12:53 AM 35.1 °F 32.2 °F 25.0 °F 67% 30.04 in 10.0 mi ESE 3.5 mph - N/A   Clear
1:53 AM 33.1 °F 26.9 °F 26.1 °F 75% 30.04 in 10.0 mi SSE 6.9 mph - N/A   Clear
2:53 AM 34.0 °F 28.0 °F 27.0 °F 75% 30.06 in 10.0 mi SSE 6.9 mph - N/A   Clear
3:53 AM 34.0 °F 28.0 °F 28.0 °F 79% 30.04 in 10.0 mi SSE 6.9 mph - N/A   Clear
4:53 AM 35.1 °F 28.6 °F 28.9 °F 78% 30.04 in 10.0 mi South 8.1 mph - N/A   Clear
5:53 AM 36.0 °F 29.0 °F 30.0 °F 79% 30.03 in 10.0 mi South 9.2 mph - N/A   Clear
6:53 AM 36.0 °F 30.3 °F 30.9 °F 82% 30.04 in 10.0 mi SSE 6.9 mph - N/A   Clear
7:53 AM 37.0 °F 31.6 °F 32.0 °F 82% 30.04 in 10.0 mi South 6.9 mph - N/A   Clear
8:53 AM 37.9 °F 30.9 °F 33.1 °F 83% 30.05 in 10.0 mi South 10.4 mph - N/A   Clear
9:53 AM 39.9 °F 32.5 °F 35.1 °F 83% 30.05 in 9.0 mi South 12.7 mph - N/A   Clear
10:53 AM 42.1 °F 36.6 °F 36.0 °F 79% 30.04 in 9.0 mi South 9.2 mph - N/A   Clear
11:53 AM 46.0 °F 39.6 °F 37.9 °F 73% 30.01 in 8.0 mi SSW 15.0 mph - N/A   Clear
12:53 PM 46.9 °F - 41.0 °F 80% 29.99 in 8.0 mi South 16.1 mph - N/A   Clear
1:53 PM 52.0 °F - 45.0 °F 77% 29.97 in 9.0 mi SSW 19.6 mph - N/A   Clear
2:53 PM 53.1 °F - 46.0 °F 77% 29.96 in 10.0 mi South 18.4 mph - N/A   Mostly Cloudy
3:53 PM 53.1 °F - 46.0 °F 77% 29.96 in 9.0 mi South 13.8 mph - N/A   Overcast
4:53 PM 52.0 °F - 46.0 °F 80% 29.94 in 10.0 mi South 15.0 mph - N/A   Clear
5:53 PM 51.1 °F - 45.0 °F 80% 29.93 in 10.0 mi South 15.0 mph - N/A   Clear
6:53 PM 51.1 °F - 44.1 °F 77% 29.93 in 10.0 mi South 16.1 mph - N/A   Clear
7:53 PM 51.1 °F - 45.0 °F 80% 29.93 in 10.0 mi South 15.0 mph - N/A   Mostly Cloudy
8:53 PM 52.0 °F - 46.0 °F 80% 29.93 in 10.0 mi South 17.3 mph - N/A   Overcast
9:53 PM 52.0 °F - 46.9 °F 83% 29.91 in 10.0 mi South 13.8 mph - N/A   Overcast
10:53 PM 53.1 °F - 48.0 °F 83% 29.91 in 10.0 mi South 15.0 mph - N/A   Overcast
11:53 PM 51.1 °F - 48.0 °F 89% 29.89 in 10.0 mi South 12.7 mph - N/A   Overcast